When you browse on this site, cookies collect data to enhance your experience and personalize the content and advertising you see.
Visit our Privacy Policy to learn more. By continuing to use the site, you agree to this use of cookies and data.
  • En España
  • Lista de países
  • Para 7 días
  • Temperatura del agua
  • Mapa Satelital
  • El tiempo en el mapa
  • Informadores
  • user-avatar
    Iniciar sesión

    Tiempo cada hora Prutz

    Hoy, 14 Diciembre, Viernes

    Tiempo Temperatura Precipitaciones Viento Presión Humedad
    00:00 -15°C° 0 mm 2 mps 625 mmHg 70%
    01:00 -15°C° 0 mm 2 mps 625 mmHg 67%
    02:00 -15°C° 0 mm 2 mps 625 mmHg 66%
    03:00 -15°C° 0 mm 2 mps 625 mmHg 65%
    04:00 -15°C° 0 mm 2 mps 625 mmHg 64%
    05:00 -15°C° 0 mm 2 mps 625 mmHg 62%
    06:00 -14°C° 0 mm 1 mps 625 mmHg 61%
    07:00 -14°C° 0 mm 1 mps 625 mmHg 63%
    08:00 -12°C° 0 mm 1 mps 626 mmHg 63%
    09:00 -10°C° 0 mm 1 mps 627 mmHg 63%
    10:00 -9°C° 0 mm 1 mps 628 mmHg 63%
    11:00 -7°C° 0 mm 1 mps 628 mmHg 61%
    12:00 -6°C° 0 mm 1 mps 628 mmHg 59%
    13:00 -3°C° 0 mm 1 mps 629 mmHg 57%
    14:00 -6°C° 0 mm 1 mps 628 mmHg 64%
    15:00 -8°C° 0 mm 1 mps 628 mmHg 72%
    16:00 -10°C° 0 mm 1 mps 627 mmHg 79%
    17:00 -11°C° 0 mm 1 mps 627 mmHg 79%
    18:00 -12°C° 0 mm 1 mps 627 mmHg 78%
    19:00 -13°C° 0 mm 1 mps 627 mmHg 78%
    20:00 -13°C° 0 mm 1 mps 628 mmHg 74%
    21:00 -13°C° 0 mm 1 mps 628 mmHg 70%
    22:00 -14°C° 0 mm 1 mps 628 mmHg 66%
    23:00 -14°C° 0 mm 1 mps 628 mmHg 65%

    Mañana, 15 Diciembre, Sábado

    Tiempo Temperatura Precipitaciones Viento Presión Humedad
    00:00 -14°C° 0 mm 1 mps 628 mmHg 64%
    01:00 -14°C° 0 mm 1 mps 628 mmHg 63%
    02:00 -14°C° 0 mm 1 mps 628 mmHg 64%
    03:00 -14°C° 0 mm 1 mps 629 mmHg 65%
    04:00 -16°C° 0 mm 2 mps 629 mmHg 65%
    05:00 -16°C° 0 mm 2 mps 629 mmHg 67%
    06:00 -16°C° 0 mm 2 mps 629 mmHg 68%
    07:00 -16°C° 0 mm 2 mps 629 mmHg 70%
    08:00 -12°C° 0 mm 1 mps 630 mmHg 70%
    09:00 -10°C° 0 mm 1 mps 631 mmHg 71%
    10:00 -9°C° 0 mm 1 mps 631 mmHg 72%
    11:00 -7°C° 0 mm 1 mps 631 mmHg 69%
    12:00 -4°C° 0 mm 1 mps 631 mmHg 67%
    13:00 -3°C° 0 mm 1 mps 631 mmHg 64%
    14:00 -6°C° 0 mm 1 mps 631 mmHg 68%
    15:00 -7°C° 0 mm 1 mps 630 mmHg 72%
    16:00 -9°C° 0 mm 1 mps 630 mmHg 76%
    17:00 -9°C° 0 mm 1 mps 630 mmHg 71%
    18:00 -10°C° 0 mm 1 mps 630 mmHg 66%
    19:00 -13°C° 0 mm 2 mps 630 mmHg 60%
    20:00 -13°C° 0 mm 2 mps 629 mmHg 56%
    21:00 -12°C° 0 mm 2 mps 629 mmHg 52%
    22:00 -12°C° 0 mm 2 mps 629 mmHg 47%
    23:00 -10°C° 0 mm 2 mps 629 mmHg 47%

    Pasado mañana, 16 Diciembre, Domingo

    Tiempo Temperatura Precipitaciones Viento Presión Humedad
    00:00 -10°C° 0 mm 2 mps 629 mmHg 46%
    01:00 -9°C° 0 mm 2 mps 629 mmHg 46%
    02:00 -8°C° 0 mm 2 mps 629 mmHg 51%
    03:00 -7°C° 0 mm 2 mps 629 mmHg 56%
    04:00 -5°C° 0 mm 2 mps 629 mmHg 61%
    05:00 -5°C° 0.9 mm 2 mps 629 mmHg 70%
    06:00 -5°C° 0.9 mm 2 mps 629 mmHg 80%
    07:00 -4°C° 0.9 mm 2 mps 629 mmHg 89%
    08:00 -3°C° 0.3 mm 2 mps 630 mmHg 88%
    09:00 0°C° 0.3 mm 1 mps 630 mmHg 87%
    10:00 +1°C° 0.3 mm 1 mps 630 mmHg 87%
    11:00 +1°C° 0 mm 1 mps 630 mmHg 88%
    12:00 +2°C° 0 mm 1 mps 630 mmHg 88%
    13:00 +3°C° 0 mm 1 mps 630 mmHg 89%
    14:00 +2°C° 0.2 mm 1 mps 630 mmHg 90%
    15:00 +1°C° 0.2 mm 1 mps 630 mmHg 91%
    16:00 +1°C° 0.2 mm 1 mps 630 mmHg 92%
    17:00 0°C° 0.6 mm 1 mps 630 mmHg 92%
    18:00 0°C° 0.6 mm 1 mps 630 mmHg 93%
    19:00 -1°C° 0.6 mm 0 mps 630 mmHg 93%
    20:00 0°C° 0.9 mm 1 mps 630 mmHg 94%
    21:00 -1°C° 0.9 mm 1 mps 630 mmHg 94%
    22:00 -1°C° 0.9 mm 1 mps 631 mmHg 94%
    23:00 -1°C° 0.3 mm 1 mps 630 mmHg 93%

    17 Diciembre, Lunes

    Tiempo Temperatura Precipitaciones Viento Presión Humedad
    00:00 -1°C° 0.3 mm 1 mps 630 mmHg 92%
    01:00 -1°C° 0.3 mm 1 mps 630 mmHg 91%
    02:00 -2°C° 0 mm 1 mps 630 mmHg 90%
    03:00 -2°C° 0 mm 1 mps 629 mmHg 89%
    04:00 -3°C° 0 mm 1 mps 629 mmHg 88%
    05:00 -3°C° 0 mm 1 mps 629 mmHg 88%
    06:00 -3°C° 0 mm 1 mps 629 mmHg 88%
    07:00 -4°C° 0 mm 1 mps 630 mmHg 87%
    08:00 -3°C° 0 mm 1 mps 630 mmHg 87%
    09:00 -2°C° 0 mm 1 mps 631 mmHg 87%
    10:00 -2°C° 0 mm 1 mps 631 mmHg 87%
    11:00 -1°C° 0 mm 1 mps 632 mmHg 87%
    12:00 -2°C° 0 mm 2 mps 632 mmHg 87%
    13:00 -2°C° 0 mm 2 mps 632 mmHg 87%
    14:00 -2°C° 0 mm 2 mps 632 mmHg 89%
    15:00 -3°C° 0 mm 2 mps 633 mmHg 90%
    16:00 -4°C° 0 mm 2 mps 633 mmHg 92%
    17:00 -4°C° 0 mm 2 mps 633 mmHg 92%
    18:00 -5°C° 0 mm 2 mps 633 mmHg 92%
    19:00 -6°C° 0 mm 2 mps 634 mmHg 92%
    20:00 -7°C° 0 mm 2 mps 634 mmHg 91%
    21:00 -6°C° 0 mm 1 mps 634 mmHg 91%
    22:00 -6°C° 0 mm 1 mps 635 mmHg 90%
    23:00 -7°C° 0 mm 1 mps 635 mmHg 89%

    18 Diciembre, Martes

    Tiempo Temperatura Precipitaciones Viento Presión Humedad
    00:00 -7°C° 0 mm 1 mps 635 mmHg 88%
    01:00 -7°C° 0 mm 1 mps 635 mmHg 87%
    02:00 -7°C° 0 mm 1 mps 635 mmHg 86%
    03:00 -7°C° 0 mm 1 mps 635 mmHg 85%
    04:00 -8°C° 0 mm 1 mps 635 mmHg 84%
    05:00 -8°C° 0 mm 1 mps 635 mmHg 80%
    06:00 -8°C° 0 mm 1 mps 635 mmHg 76%
    07:00 -8°C° 0 mm 1 mps 635 mmHg 72%
    08:00 -7°C° 0 mm 2 mps 635 mmHg 70%
    09:00 -6°C° 0 mm 2 mps 635 mmHg 68%
    10:00 -5°C° 0 mm 2 mps 636 mmHg 66%
    11:00 -3°C° 0 mm 2 mps 636 mmHg 68%
    12:00 -1°C° 0 mm 2 mps 636 mmHg 70%
    13:00 +1°C° 0 mm 2 mps 636 mmHg 72%
    14:00 -1°C° 0 mm 2 mps 635 mmHg 71%
    15:00 -2°C° 0 mm 2 mps 634 mmHg 71%
    16:00 -3°C° 0 mm 2 mps 634 mmHg 71%
    17:00 -5°C° 0 mm 3 mps 633 mmHg 68%
    18:00 -6°C° 0 mm 3 mps 633 mmHg 65%
    19:00 -7°C° 0 mm 3 mps 633 mmHg 62%
    20:00 -7°C° 0 mm 3 mps 633 mmHg 60%
    21:00 -7°C° 0 mm 3 mps 633 mmHg 59%
    22:00 -7°C° 0 mm 3 mps 633 mmHg 58%
    23:00 -6°C° 0 mm 3 mps 633 mmHg 59%

    19 Diciembre, Miércoles

    Tiempo Temperatura Precipitaciones Viento Presión Humedad
    00:00 -5°C° 0 mm 3 mps 633 mmHg 60%
    01:00 -5°C° 0 mm 3 mps 632 mmHg 61%
    02:00 -5°C° 0 mm 3 mps 632 mmHg 62%
    03:00 -3°C° 0 mm 2 mps 632 mmHg 63%
    04:00 -3°C° 0 mm 2 mps 632 mmHg 64%
    05:00 -3°C° 0 mm 2 mps 632 mmHg 65%
    06:00 -3°C° 0 mm 2 mps 632 mmHg 65%
    07:00 -3°C° 0 mm 2 mps 632 mmHg 66%
    08:00 -3°C° 0 mm 2 mps 632 mmHg 68%
    09:00 -2°C° 0 mm 2 mps 632 mmHg 70%
    10:00 +1°C° 0 mm 1 mps 633 mmHg 72%
    11:00 +1°C° 0 mm 1 mps 632 mmHg 75%
    12:00 +2°C° 0 mm 1 mps 632 mmHg 78%
    13:00 +3°C° 0 mm 1 mps 632 mmHg 80%
    14:00 +2°C° 0.1 mm 1 mps 632 mmHg 82%
    15:00 +1°C° 0.1 mm 1 mps 632 mmHg 84%
    16:00 -1°C° 0.1 mm 0 mps 631 mmHg 86%
    17:00 -1°C° 0.2 mm 0 mps 631 mmHg 87%
    18:00 -1°C° 0.2 mm 1 mps 631 mmHg 88%
    19:00 -1°C° 0.2 mm 1 mps 631 mmHg 89%
    20:00 -1°C° 0.4 mm 1 mps 631 mmHg 90%
    21:00 -1°C° 0.4 mm 1 mps 631 mmHg 91%
    22:00 -1°C° 0.4 mm 1 mps 631 mmHg 92%
    23:00 -1°C° 0.5 mm 1 mps 631 mmHg 93%
    Mostrar más